Home > Weather > Kuwait City > Past weeks

Flag for Kuwait Weather for the Past 2 Weeks in Kuwait City, Kuwait

Now
66 °F

Sunny.


Feels Like: 66 °F
Forecast: 49 / 65 °F
Wind: 15 mph from Northwest

Location: Kuwait International Airport

Current Time: Feb 12, 2016 at 5:38:17 PM

Latest Report: Feb 12, 2016 at 5:00 PM


Visibility: 10 mi

Pressure: 30.15 "Hg

Humidity: 24%

Dew point: 28 °F

Location of Kuwait CityLocation

Historic Weather in Kuwait City — Graph

°F

Kuwait City Temperature Yesterday

Maximum temperature yesterday: 66 °F (at 3:00 PM)
Minimum temperature yesterday: 54 °F (at 4:00 AM)
Average temperature yesterday: 59 °F

High & Low Weather Summary for the Past Weeks

 TemperatureHumidityPressure
High75 °F (Feb 6, 2:00 PM)94% (Feb 11, 6:00 AM)30.42 "Hg (Feb 11, 6:00 AM)
Low32 °F (Jan 31, 4:00 AM)16% (Jan 29, 2:30 PM)29.83 "Hg (Feb 7, 3:00 PM)
Average54 °F46%30.20 "Hg
* Reported Jan 28 4:30 PM — Feb 12 4:30 PM, Kuwait City, Weather by CustomWeather, © 2016

Note: Actual official high and low records may vary slightly from our data, if they occured in-between our weather recording intervals... More about our weather records

Advertising

Kuwait City Weather History for the Previous 24 Hours

 ConditionsComfort  
Time TempWeatherWind HumidityBarometerVisibility
4:30 PM
Fri, Feb 12
66 °FSunny.15 mph24%30.15 "Hg10 mi
4:00 PM68 °FSunny.16 mph21%30.15 "Hg10 mi
3:30 PM68 °FSunny.18 mph23%30.15 "Hg10 mi
3:00 PM66 °FSunny.20 mph22%30.15 "Hg10 mi
2:30 PM68 °FSunny.18 mph23%30.15 "Hg10 mi
2:00 PM66 °FSunny.18 mph24%30.15 "Hg10 mi
1:30 PM68 °FSunny.17 mph24%30.15 "Hg10 mi
1:00 PM66 °FSunny.17 mph26%30.15 "Hg10 mi
12:30 PM66 °FSunny.17 mph28%30.18 "Hg10 mi
12:00 PM64 °FSunny.15 mph30%30.18 "Hg10 mi
11:30 AM63 °FSunny.18 mph34%30.18 "Hg10 mi
11:00 AM63 °FSunny.16 mph34%30.21 "Hg10 mi
10:30 AM63 °FSunny.15 mph34%30.21 "Hg10 mi
10:00 AM61 °FSunny.13 mph39%30.24 "Hg10 mi
9:30 AM59 °FSunny.13 mph42%30.24 "Hg10 mi
9:00 AM57 °FSunny.10 mph44%30.24 "Hg10 mi
8:30 AM55 °FSunny.9 mph47%30.21 "Hg10 mi
8:00 AM52 °FSunny.3 mph54%30.21 "Hg10 mi
7:00 AM43 °FSunny.5 mph81%30.21 "Hg10 mi
6:00 AM45 °FClear.6 mph76%30.21 "Hg10 mi
5:30 AM43 °FClear.7 mph81%30.18 "Hg10 mi
5:00 AM43 °FClear.5 mph81%30.18 "Hg10 mi
4:30 AM45 °FClear.5 mph76%30.18 "Hg10 mi
4:00 AM48 °FClear.7 mph71%30.18 "Hg10 mi
3:30 AM48 °FClear.7 mph71%30.15 "Hg10 mi
3:00 AM48 °FClear.6 mph71%30.18 "Hg10 mi
2:30 AM52 °FClear.9 mph62%30.18 "Hg10 mi
2:00 AM52 °FClear.12 mph62%30.18 "Hg10 mi
1:00 AM55 °FClear.13 mph55%30.18 "Hg10 mi
12:30 AM54 °FClear.13 mph58%30.18 "Hg10 mi
12:00 AM54 °FClear.12 mph58%30.21 "Hg10 mi
11:30 PM
Thu, Feb 11
55 °FClear.12 mph55%30.21 "Hg10 mi
11:00 PM55 °FClear.14 mph59%30.21 "Hg10 mi
10:30 PM55 °FClear.15 mph59%30.21 "Hg10 mi
10:00 PM57 °FClear.16 mph55%30.21 "Hg10 mi
9:30 PM57 °FClear.16 mph55%30.21 "Hg10 mi
9:00 PM57 °FClear.17 mph51%30.18 "Hg10 mi
8:30 PM59 °FClear.17 mph48%30.18 "Hg10 mi
8:00 PM59 °FClear.15 mph42%30.18 "Hg10 mi
7:30 PM59 °FClear.13 mph45%30.18 "Hg10 mi
7:00 PM61 °FClear.15 mph45%30.18 "Hg10 mi
6:30 PM61 °FClear.16 mph45%30.15 "Hg10 mi
6:00 PM63 °FPassing clouds.20 mph42%30.15 "HgN/A
5:30 PM64 °FPartly sunny.15 mph43%30.12 "HgN/A
5:00 PM64 °FPartly sunny.20 mph46%30.12 "HgN/A
Weather by CustomWeather, © 2016

See weather overviewHow to use our weather pages